Location: Unspecified
(41.5000°N, 0.0000°E)
Time: 17:18:26
(UTC+00:00)

Vanguard 3 - Pass Details

Date: 27 June 2019
Orbit: 507 x 3264 km, 33.4° (Epoch: 15 July)

Event Time Altitude Azimuth Distance (km) Brightness Sun altitude
Rises 10:07:39 0° 241° (WSW) 7,069 11.8 59.9°
Reaches altitude 10° 10:12:56 10° 237° (WSW) 5,826 11.5 60.7°
Maximum altitude 10:28:46 51° 169° (S) 2,552 11.1 63.2°
Drops below altitude 10° 10:38:16 10° 97° (E) 3,615 10.9 64.6°
Sets 10:40:45 0° 92° (E) 4,295 11.1 65.0°
